This is the latest recevied weather packets stored in our database for station/object KC5DAQ-22. If no packets are shown the sender has not sent any weather packets the latest 10 day(s).
| Time | Temp. | Humidity | Pressure | Rain* | Wind** | Luminosity | Snow |
|---|---|---|---|---|---|---|---|
| 1777650836 | 16.67° C | 96% | 1010.1 hPa | 0.25 mm | - | 12 W/m² | - |
| 1777650774 | 16.67° C | 96% | 1010.1 hPa | 0.25 mm | - | 12 W/m² | - |
| 1777650715 | 16.67° C | 96% | 1010.1 hPa | 0.25 mm | - | 14 W/m² | - |
| 1777650655 | 16.67° C | 96% | 1010.2 hPa | 0.25 mm | - | 14 W/m² | - |
| 1777650595 | 16.67° C | 96% | 1010.2 hPa | 0.25 mm | - | 18 W/m² | - |
| 1777650534 | 16.67° C | 96% | 1010.2 hPa | 0.25 mm | - | 18 W/m² | - |
| 1777650474 | 16.67° C | 96% | 1010.2 hPa | 0.25 mm | - | 19 W/m² | - |
| 1777650415 | 16.67° C | 96% | 1010.2 hPa | 0.25 mm | - | 23 W/m² | - |
| 1777650355 | 16.67° C | 96% | 1010 hPa | 0.25 mm | - | 28 W/m² | - |
| 1777650295 | 16.67° C | 96% | 1009.9 hPa | 0.25 mm | - | 46 W/m² | - |
| 1777650234 | 16.67° C | 96% | 1009.7 hPa | 0.25 mm | - | 51 W/m² | - |
| 1777650175 | 16.67° C | 96% | 1009.6 hPa | 0.25 mm | - | 51 W/m² | - |
| 1777650114 | 16.67° C | 96% | 1009.6 hPa | 0.25 mm | - | 48 W/m² | - |
| 1777650054 | 16.67° C | 96% | 1009.7 hPa | 0.25 mm | - | 44 W/m² | - |
| 1777649995 | 16.67° C | 96% | 1009.7 hPa | 0.25 mm | - | 41 W/m² | - |
| 1777649935 | 16.67° C | 96% | 1009.8 hPa | 0.25 mm | - | 42 W/m² | - |
| 1777649874 | 16.67° C | 96% | 1009.7 hPa | 0.25 mm | - | 46 W/m² | - |
| 1777649815 | 16.67° C | 96% | 1009.6 hPa | 0.25 mm | - | 56 W/m² | - |
| 1777649744 | 16.67° C | 96% | 1009.5 hPa | 0.25 mm | - | 56 W/m² | - |
| 1777649682 | 16.67° C | 96% | 1009.5 hPa | 0.25 mm | - | 63 W/m² | - |
| 1777649621 | 16.67° C | 96% | 1009.4 hPa | 0.25 mm | - | 74 W/m² | - |
| 1777649559 | 16.67° C | 96% | 1009.6 hPa | 0.25 mm | - | 76 W/m² | - |
| 1777649499 | 16.67° C | 96% | 1009.6 hPa | 0.51 mm | - | 76 W/m² | - |
| 1777649433 | 16.67° C | 96% | 1009.6 hPa | 0.51 mm | - | 76 W/m² | - |
| 1777649371 | 16.67° C | 96% | 1009.6 hPa | 0.51 mm | - | 83 W/m² | - |
* Rain latest hour (hover to see other rain measurements)
** Current wind speed in m/s (hover to see current wind gust speed)